| time (UTC) | temp F | wind direction | speed MPH | gust MPH | rain 1hr in | rain 24hr in | rain mn in | humidity % | barometer mb |
| 20260505055007 | 45 | 265 | 0.0 | 0.0 | 0.00 | 0.09 | 0.09 | 95 | 1017.3 |
| 20260505054504 | 45 | 272 | 0.0 | 0.0 | 0.07 | 0.09 | 0.09 | 96 | 1016.8 |
| 20260505054002 | 45 | 290 | 0.0 | 0.0 | 0.07 | 0.09 | 0.09 | 95 | 1017.0 |
| 20260505053459 | 46 | 276 | 1.0 | 1.0 | 0.05 | 0.08 | 0.08 | 95 | 1017.1 |
| 20260505052955 | 46 | 276 | 1.0 | 1.0 | 0.05 | 0.08 | 0.08 | 95 | 1017.3 |
| 20260505052453 | 46 | 267 | 1.0 | 1.0 | 0.05 | 0.08 | 0.08 | 95 | 1017.3 |
| 20260505051950 | 46 | 278 | 1.0 | 1.0 | 0.00 | 0.07 | 0.07 | 95 | 1017.4 |
| 20260505051447 | 46 | 267 | 1.0 | 1.0 | 0.00 | 0.07 | 0.07 | 95 | 1017.5 |
| 20260505050945 | 46 | 297 | 2.0 | 2.0 | 0.00 | 0.07 | 0.07 | 94 | 1017.3 |
| 20260505050443 | 46 | 269 | 1.0 | 1.0 | 0.07 | 0.07 | 0.07 | 94 | 1017.1 |
| 20260505041411 | 48 | 300 | 1.0 | 2.0 | 0.07 | 0.01 | 0.01 | 81 | 1017.3 |
| 20260505040908 | 49 | 279 | 1.0 | 1.0 | 0.00 | 0.00 | 0.00 | 75 | 1017.3 |
| 20260505040405 | 50 | 260 | 1.0 | 1.0 | 0.00 | 0.00 | 0.00 | 70 | 1017.1 |
| 20260505035902 | 50 | 259 | 1.0 | 2.0 | 0.00 | 0.00 | 0.00 | 67 | 1017.0 |
| 20260505035357 | 50 | 271 | 0.0 | 0.0 | 0.00 | 0.00 | 0.00 | 67 | 1016.9 |
| 20260505034855 | 50 | 271 | 1.0 | 1.0 | 0.00 | 0.00 | 0.00 | 66 | 1016.4 |
| 20260505034352 | 50 | 300 | 2.0 | 2.0 | 0.00 | 0.00 | 0.00 | 66 | 1016.5 |
| 20260505033849 | 50 | 272 | 1.0 | 1.0 | 0.00 | 0.00 | 0.00 | 66 | 1016.4 |
| 20260505033345 | 50 | 276 | 1.0 | 1.0 | 0.00 | 0.00 | 0.00 | 65 | 1016.4 |
| 20260505032844 | 50 | 281 | 1.0 | 1.0 | 0.00 | 0.00 | 0.00 | 65 | 1016.3 |
| 20260505032340 | 50 | 298 | 2.0 | 2.0 | 0.00 | 0.00 | 0.00 | 65 | 1016.2 |
| 20260505031837 | 50 | 285 | 1.0 | 2.0 | 0.00 | 0.00 | 0.00 | 65 | 1016.3 |
| 20260505031333 | 50 | 323 | 3.0 | 3.0 | 0.00 | 0.00 | 0.00 | 64 | 1016.2 |
| 20260505030831 | 50 | 326 | 3.0 | 3.0 | 0.00 | 0.00 | 0.00 | 63 | 1016.2 |
| 20260505030327 | 50 | 292 | 1.0 | 2.0 | 0.00 | 0.00 | 0.00 | 64 | 1016.1 |
| 20260505025822 | 51 | 294 | 1.0 | 1.0 | 0.00 | 0.00 | 0.00 | 63 | 1016.3 |
| 20260505025320 | 51 | 326 | 3.0 | 3.0 | 0.00 | 0.00 | 0.00 | 62 | 1015.9 |
| 20260505024818 | 51 | 291 | 2.0 | 2.0 | 0.00 | 0.00 | 0.00 | 63 | 1015.8 |
| 20260505024316 | 51 | 299 | 2.0 | 2.0 | 0.00 | 0.00 | 0.00 | 63 | 1015.9 |
| 20260505023813 | 51 | 306 | 2.0 | 2.0 | 0.00 | 0.00 | 0.00 | 62 | 1015.8 |
| 20260505023309 | 50 | 326 | 3.0 | 3.0 | 0.00 | 0.00 | 0.00 | 63 | 1015.7 |
| 20260505022807 | 50 | 295 | 1.0 | 2.0 | 0.00 | 0.00 | 0.00 | 64 | 1015.8 |
| 20260505022304 | 50 | 273 | 1.0 | 1.0 | 0.00 | 0.00 | 0.00 | 64 | 1015.9 |
| 20260505021801 | 50 | 307 | 2.0 | 2.0 | 0.00 | 0.00 | 0.00 | 65 | 1015.7 |
| 20260505021258 | 50 | 326 | 5.0 | 7.0 | 0.00 | 0.00 | 0.00 | 64 | 1015.8 |
| 20260505020753 | 50 | 336 | 6.0 | 6.0 | 0.00 | 0.00 | 0.00 | 64 | 1015.9 |
| 20260505020248 | 50 | 329 | 4.0 | 5.0 | 0.00 | 0.00 | 0.00 | 64 | 1016.1 |
| 20260505015746 | 51 | 332 | 4.0 | 5.0 | 0.00 | 0.00 | 0.00 | 64 | 1015.8 |
| 20260505015243 | 51 | 344 | 3.0 | 5.0 | 0.00 | 0.00 | 0.00 | 62 | 1015.6 |
| 20260505014740 | 52 | 327 | 6.0 | 7.0 | 0.00 | 0.00 | 0.00 | 59 | 1015.6 |
| 20260505014238 | 53 | 336 | 8.0 | 9.0 | 0.00 | 0.00 | 0.00 | 59 | 1015.2 |
| 20260505013734 | 53 | 307 | 3.0 | 5.0 | 0.00 | 0.00 | 0.00 | 56 | 1015.5 |
| 20260505013231 | 54 | 319 | 2.0 | 2.0 | 0.00 | 0.00 | 0.00 | 55 | 1015.6 |
| 20260505012729 | 54 | 295 | 2.0 | 2.0 | 0.00 | 0.00 | 0.00 | 52 | 1015.6 |
| 20260505012226 | 55 | 320 | 4.0 | 5.0 | 0.00 | 0.00 | 0.00 | 50 | 1015.2 |
| 20260505011722 | 55 | 293 | 1.0 | 2.0 | 0.00 | 0.00 | 0.00 | 49 | 1015.6 |
| 20260505011220 | 55 | 327 | 5.0 | 5.0 | 0.00 | 0.00 | 0.00 | 49 | 1015.3 |
| 20260505010715 | 55 | 310 | 7.0 | 8.0 | 0.00 | 0.00 | 0.00 | 48 | 1015.1 |
| 20260505010212 | 56 | 317 | 9.0 | 11.0 | 0.00 | 0.00 | 0.00 | 47 | 1015.0 |
| 20260505005708 | 56 | 303 | 7.0 | 9.0 | 0.00 | 0.00 | 0.00 | 46 | 1014.9 |
| 20260505005205 | 56 | 316 | 9.0 | 10.0 | 0.00 | 0.00 | 0.00 | 46 | 1015.0 |
| 20260505004702 | 57 | 346 | 9.0 | 10.0 | 0.00 | 0.00 | 0.00 | 44 | 1014.9 |
| 20260505004159 | 57 | 343 | 11.0 | 14.0 | 0.00 | 0.00 | 0.00 | 43 | 1014.7 |
| 20260505003656 | 58 | 337 | 11.0 | 14.0 | 0.00 | 0.00 | 0.00 | 41 | 1014.7 |
| 20260505003153 | 58 | 339 | 3.0 | 3.0 | 0.00 | 0.00 | 0.00 | 41 | 1014.9 |
| 20260505002649 | 58 | 353 | 8.0 | 9.0 | 0.00 | 0.00 | 0.00 | 40 | 1014.9 |
| 20260505002148 | 58 | 329 | 5.0 | 7.0 | 0.00 | 0.00 | 0.00 | 40 | 1014.6 |
| 20260505001644 | 59 | 13 | 7.0 | 8.0 | 0.00 | 0.00 | 0.00 | 40 | 1014.5 |
| 20260505001142 | 59 | 345 | 7.0 | 11.0 | 0.00 | 0.00 | 0.00 | 39 | 1014.2 |
| 20260505000638 | 59 | 335 | 5.0 | 8.0 | 0.00 | 0.00 | 0.00 | 39 | 1014.4 |
| 20260505000137 | 59 | 326 | 9.0 | 10.0 | 0.00 | 0.00 | 0.00 | 38 | 1014.7 |
| 20260504235633 | 59 | 321 | 6.0 | 7.0 | 0.00 | 0.00 | 0.00 | 38 | 1014.6 |
| 20260504235129 | 59 | 329 | 7.0 | 8.0 | 0.00 | 0.00 | 0.00 | 37 | 1014.7 |
| 20260504234626 | 59 | 351 | 3.0 | 3.0 | 0.00 | 0.00 | 0.00 | 39 | 1014.6 |
| 20260504234124 | 59 | 323 | 7.0 | 9.0 | 0.00 | 0.00 | 0.00 | 38 | 1014.5 |
| 20260504233619 | 60 | 326 | 7.0 | 8.0 | 0.00 | 0.00 | 0.00 | 38 | 1014.5 |
| 20260504233115 | 60 | 13 | 3.0 | 3.0 | 0.00 | 0.00 | 0.00 | 38 | 1014.6 |
| 20260504232614 | 60 | 313 | 5.0 | 6.0 | 0.00 | 0.00 | 0.00 | 38 | 1014.5 |
| 20260504232110 | 60 | 342 | 7.0 | 10.0 | 0.00 | 0.00 | 0.00 | 38 | 1014.5 |
| 20260504231607 | 60 | 336 | 11.0 | 15.0 | 0.00 | 0.00 | 0.00 | 37 | 1014.5 |
| 20260504231103 | 59 | 318 | 10.0 | 11.0 | 0.00 | 0.00 | 0.00 | 38 | 1014.0 |
| 20260504230558 | 60 | 323 | 11.0 | 16.0 | 0.00 | 0.00 | 0.00 | 38 | 1013.8 |
| 20260504230053 | 60 | 334 | 8.0 | 11.0 | 0.00 | 0.00 | 0.00 | 38 | 1013.8 |
| 20260504225549 | 60 | 357 | 12.0 | 16.0 | 0.00 | 0.00 | 0.00 | 38 | 1013.6 |
| 20260504225046 | 60 | 55 | 5.0 | 9.0 | 0.00 | 0.00 | 0.00 | 38 | 1013.8 |
| 20260504224543 | 60 | 341 | 12.0 | 14.0 | 0.00 | 0.00 | 0.00 | 37 | 1013.8 |
| 20260504224040 | 61 | 332 | 7.0 | 8.0 | 0.00 | 0.00 | 0.00 | 36 | 1013.6 |
| 20260504223537 | 62 | 339 | 12.0 | 13.0 | 0.00 | 0.00 | 0.00 | 34 | 1013.6 |
| 20260504223033 | 64 | 315 | 4.0 | 5.0 | 0.00 | 0.00 | 0.00 | 29 | 1013.3 |
| 20260504222530 | 64 | 307 | 7.0 | 8.0 | 0.00 | 0.00 | 0.00 | 28 | 1013.4 |
| 20260504222027 | 65 | 333 | 4.0 | 5.0 | 0.00 | 0.00 | 0.00 | 28 | 1013.2 |
| 20260504221524 | 64 | 273 | 7.0 | 10.0 | 0.00 | 0.00 | 0.00 | 28 | 1013.2 |
| 20260504221021 | 64 | 345 | 9.0 | 10.0 | 0.00 | 0.00 | 0.00 | 28 | 1013.2 |
| 20260504220518 | 64 | 321 | 9.0 | 9.0 | 0.00 | 0.00 | 0.00 | 28 | 1012.9 |
| 20260504220015 | 64 | 311 | 12.0 | 14.0 | 0.00 | 0.00 | 0.00 | 27 | 1013.0 |
| 20260504215511 | 64 | 282 | 9.0 | 10.0 | 0.00 | 0.00 | 0.00 | 29 | 1012.9 |
| 20260504215009 | 64 | 352 | 5.0 | 6.0 | 0.00 | 0.00 | 0.00 | 29 | 1013.0 |
| 20260504214504 | 64 | 347 | 7.0 | 11.0 | 0.00 | 0.00 | 0.00 | 28 | 1013.0 |
| 20260504214001 | 65 | 331 | 12.0 | 15.0 | 0.00 | 0.00 | 0.00 | 27 | 1013.2 |
| 20260504213456 | 65 | 356 | 5.0 | 7.0 | 0.00 | 0.00 | 0.00 | 26 | 1013.0 |
| 20260504212955 | 65 | 329 | 8.0 | 10.0 | 0.00 | 0.00 | 0.00 | 26 | 1013.4 |
| 20260504212450 | 66 | 352 | 5.0 | 7.0 | 0.00 | 0.00 | 0.00 | 27 | 1013.3 |
| 20260504211948 | 66 | 329 | 8.0 | 9.0 | 0.00 | 0.00 | 0.00 | 26 | 1013.0 |
| 20260504211444 | 66 | 310 | 1.0 | 1.0 | 0.00 | 0.00 | 0.00 | 27 | 1013.2 |
| 20260504210942 | 66 | 8 | 5.0 | 5.0 | 0.00 | 0.00 | 0.00 | 27 | 1013.6 |
| 20260504210438 | 66 | 265 | 0.0 | 0.0 | 0.00 | 0.00 | 0.00 | 24 | 1013.4 |
| 20260504205935 | 67 | 318 | 5.0 | 6.0 | 0.00 | 0.00 | 0.00 | 25 | 1013.4 |
| 20260504205433 | 67 | 309 | 7.0 | 7.0 | 0.00 | 0.00 | 0.00 | 26 | 1013.5 |
| 20260504204931 | 66 | 320 | 3.0 | 3.0 | 0.00 | 0.00 | 0.00 | 26 | 1013.4 |
| 20260504204429 | 67 | 23 | 3.0 | 5.0 | 0.00 | 0.00 | 0.00 | 27 | 1013.5 |
| 20260504203928 | 68 | 341 | 5.0 | 6.0 | 0.00 | 0.00 | 0.00 | 27 | 1013.5 |
| 20260504203425 | 69 | 323 | 7.0 | 8.0 | 0.00 | 0.00 | 0.00 | 25 | 1013.5 |
| 20260504202921 | 68 | 309 | 3.0 | 3.0 | 0.00 | 0.00 | 0.00 | 26 | 1013.5 |
| 20260504202418 | 67 | 220 | 1.0 | 2.0 | 0.00 | 0.00 | 0.00 | 26 | 1013.8 |
| 20260504201914 | 66 | 326 | 4.0 | 5.0 | 0.00 | 0.00 | 0.00 | 27 | 1013.8 |
| 20260504201412 | 68 | 144 | 2.0 | 5.0 | 0.00 | 0.00 | 0.00 | 28 | 1013.9 |
| 20260504200909 | 67 | 11 | 5.0 | 8.0 | 0.00 | 0.00 | 0.00 | 29 | 1013.8 |
| 20260504200406 | 67 | 359 | 10.0 | 15.0 | 0.00 | 0.00 | 0.00 | 27 | 1014.0 |
| 20260504195903 | 67 | 324 | 9.0 | 11.0 | 0.00 | 0.00 | 0.00 | 27 | 1013.9 |
| 20260504195358 | 67 | 351 | 8.0 | 10.0 | 0.00 | 0.00 | 0.00 | 29 | 1013.9 |
| 20260504194855 | 65 | 338 | 11.0 | 14.0 | 0.00 | 0.00 | 0.00 | 30 | 1013.9 |
| 20260504194351 | 65 | 340 | 10.0 | 11.0 | 0.00 | 0.00 | 0.00 | 30 | 1013.8 |
| 20260504193847 | 65 | 37 | 15.0 | 20.0 | 0.00 | 0.00 | 0.00 | 31 | 1014.1 |
| 20260504193344 | 65 | 338 | 7.0 | 8.0 | 0.00 | 0.00 | 0.00 | 30 | 1013.9 |
| 20260504192843 | 63 | 283 | 5.0 | 6.0 | 0.00 | 0.00 | 0.00 | 31 | 1013.8 |
| 20260504192340 | 64 | 317 | 6.0 | 8.0 | 0.00 | 0.00 | 0.00 | 28 | 1013.5 |
| 20260504191839 | 64 | 355 | 9.0 | 11.0 | 0.00 | 0.00 | 0.00 | 27 | 1013.9 |
| 20260504191337 | 64 | 319 | 10.0 | 11.0 | 0.00 | 0.00 | 0.00 | 26 | 1013.6 |
| 20260504190832 | 65 | 319 | 5.0 | 6.0 | 0.00 | 0.00 | 0.00 | 26 | 1013.6 |
| 20260504190328 | 65 | 343 | 4.0 | 5.0 | 0.00 | 0.00 | 0.00 | 26 | 1013.5 |
| 20260504185825 | 65 | 324 | 9.0 | 10.0 | 0.00 | 0.00 | 0.00 | 25 | 1013.6 |
| 20260504185322 | 66 | 344 | 8.0 | 8.0 | 0.00 | 0.00 | 0.00 | 25 | 1013.6 |
| 20260504184818 | 66 | 343 | 3.0 | 6.0 | 0.00 | 0.00 | 0.00 | 25 | 1013.6 |
| 20260504184314 | 66 | 333 | 5.0 | 6.0 | 0.00 | 0.00 | 0.00 | 25 | 1013.6 |
| 20260504183809 | 66 | 335 | 6.0 | 9.0 | 0.00 | 0.00 | 0.00 | 24 | 1013.8 |
| 20260504183307 | 68 | 336 | 5.0 | 6.0 | 0.00 | 0.00 | 0.00 | 24 | 1013.6 |
| 20260504182804 | 68 | 328 | 3.0 | 3.0 | 0.00 | 0.00 | 0.00 | 25 | 1013.9 |
| 20260504182304 | 68 | 322 | 3.0 | 3.0 | 0.00 | 0.00 | 0.00 | 24 | 1013.8 |
| 20260504181759 | 69 | 297 | 3.0 | 3.0 | 0.00 | 0.00 | 0.00 | 24 | 1013.9 |
| 20260504181256 | 71 | 202 | 1.0 | 2.0 | 0.00 | 0.00 | 0.00 | 24 | 1014.1 |
| 20260504180755 | 70 | 146 | 6.0 | 7.0 | 0.00 | 0.00 | 0.00 | 23 | 1013.9 |
| 20260504180254 | 70 | 186 | 3.0 | 5.0 | 0.00 | 0.00 | 0.00 | 21 | 1014.2 |
| 20260504175751 | 68 | 322 | 4.0 | 5.0 | 0.00 | 0.00 | 0.00 | 25 | 1014.0 |
| 20260504175247 | 70 | 339 | 2.0 | 2.0 | 0.00 | 0.00 | 0.00 | 24 | 1014.2 |
| 20260504174745 | 69 | 192 | 2.0 | 2.0 | 0.00 | 0.00 | 0.00 | 26 | 1014.1 |
| 20260504174243 | 68 | 239 | 2.0 | 3.0 | 0.00 | 0.00 | 0.00 | 23 | 1014.5 |
| 20260504173739 | 69 | 215 | 3.0 | 3.0 | 0.00 | 0.00 | 0.00 | 25 | 1014.4 |
| 20260504173236 | 68 | 197 | 3.0 | 3.0 | 0.00 | 0.00 | 0.00 | 25 | 1014.7 |
| 20260504172733 | 68 | 191 | 3.0 | 5.0 | 0.00 | 0.00 | 0.00 | 26 | 1015.0 |
| 20260504172230 | 67 | 315 | 8.0 | 11.0 | 0.00 | 0.00 | 0.00 | 25 | 1014.6 |
| 20260504171726 | 68 | 323 | 8.0 | 9.0 | 0.00 | 0.00 | 0.00 | 24 | 1014.6 |
| 20260504171223 | 68 | 313 | 3.0 | 5.0 | 0.00 | 0.00 | 0.00 | 26 | 1014.7 |
| 20260504170720 | 68 | 245 | 2.0 | 2.0 | 0.00 | 0.00 | 0.00 | 26 | 1015.0 |
| 20260504170217 | 68 | 249 | 4.0 | 5.0 | 0.00 | 0.00 | 0.00 | 26 | 1014.9 |
| 20260504160136 | 66 | 183 | 3.0 | 5.0 | 0.00 | 0.00 | 0.00 | 27 | 1015.2 |
| 20260504151103 | 62 | 252 | 4.0 | 5.0 | 0.00 | 0.00 | 0.00 | 29 | 1015.6 |
| 20260504150600 | 62 | 185 | 5.0 | 7.0 | 0.00 | 0.00 | 0.00 | 29 | 1015.5 |
| 20260504141026 | 61 | 237 | 5.0 | 8.0 | 0.00 | 0.00 | 0.00 | 30 | 1015.2 |
| 20260504140523 | 60 | 208 | 4.0 | 6.0 | 0.00 | 0.00 | 0.00 | 34 | 1015.1 |
| 20260504130447 | 46 | 195 | 2.0 | 2.0 | 0.00 | 0.00 | 0.00 | 54 | 1015.1 |
| 20260504110334 | 43 | 234 | 0.0 | 0.0 | 0.00 | 0.00 | 0.00 | 58 | 1015.3 |
| 20260504100252 | 49 | 234 | 0.0 | 0.0 | 0.00 | 0.00 | 0.00 | 44 | 1015.6 |
| 20260504081645 | 46 | 269 | 0.0 | 1.0 | 0.00 | 0.00 | 0.00 | 54 | 1016.4 |
| 20260504081141 | 46 | 257 | 0.0 | 0.0 | 0.00 | 0.00 | 0.00 | 55 | 1016.5 |
| 20260504080638 | 46 | 222 | 1.0 | 1.0 | 0.00 | 0.00 | 0.00 | 55 | 1016.5 |
| 20260504080134 | 46 | 322 | 5.0 | 6.0 | 0.00 | 0.00 | 0.00 | 58 | 1016.8 |